FW5161 Weather Reports


Display with metric or nautical units.
time (UTC)temp
F
wind
direction
speed
MPH
gust
MPH
rain 1hr
in
rain 24hr
in
rain mn
in
humidity
%
barometer
mb
20260504081905 72 241 3.0 7.0 0.00 0.00 0.00 37 1008.6
20260504081403 72 175 3.0 7.0 0.00 0.00 0.00 36 1008.6
20260504080911 72 234 3.0 6.0 0.00 0.00 0.00 37 1008.6
20260504080416 72 237 3.0 7.0 0.00 0.00 0.00 37 1008.7
20260504080137 71 186 2.0 7.0 0.00 0.00 0.00 37 1008.7
20260504070336 72 157 2.0 5.0 0.00 0.00 0.00 33 1008.6
20260504050307 73 130 2.0 7.0 0.00 0.00 0.00 32 1008.6
20260504045804 73 139 1.0 5.0 0.00 0.00 0.00 31 1008.7
20260504044804 72 182 3.0 5.0 0.00 0.00 0.00 33 1008.7
20260504044304 71 171 3.0 5.0 0.00 0.00 0.00 35 1008.7
20260504043804 72 176 2.0 5.0 0.00 0.00 0.00 34 1008.7
20260504042801 72 161 2.0 6.0 0.00 0.00 0.00 32 1008.7
20260504042304 72 153 2.0 4.0 0.00 0.00 0.00 34 1008.8
20260504041802 72 132 1.0 4.0 0.00 0.00 0.00 33 1008.8
20260504041301 72 264 2.0 8.0 0.00 0.00 0.00 33 1008.7
20260504040800 72 348 3.0 8.0 0.00 0.00 0.00 34 1008.8
20260504040302 72 119 2.0 5.0 0.00 0.00 0.00 36 1008.7
20260504040032 72 139 2.0 6.0 0.00 0.00 0.00 34 1008.7
20260504035305 72 134 3.0 6.0 0.00 0.00 0.00 36 1008.7
20260504034801 71 112 3.0 5.0 0.00 0.00 0.00 37 1008.6
20260504034302 71 137 2.0 5.0 0.00 0.00 0.00 37 1008.7
20260504033801 72 138 2.0 4.0 0.00 0.00 0.00 35 1008.8
20260504033303 72 177 2.0 3.0 0.00 0.00 0.00 34 1008.8
20260504033030 72 63 1.0 3.0 0.00 0.00 0.00 35 1008.7
20260504032304 72 61 1.0 3.0 0.00 0.00 0.00 35 1008.7
20260504031802 72 55 1.0 3.0 0.00 0.00 0.00 36 1008.7
20260504031305 72 53 1.0 3.0 0.00 0.00 0.00 35 1008.7
20260504030805 74 52 0.0 2.0 0.00 0.00 0.00 34 1008.8
20260504030533 74 52 1.0 3.0 0.00 0.00 0.00 33 1008.7
20260504025800 74 48 2.0 4.0 0.00 0.00 0.00 32 1008.8
20260504025256 73 110 2.0 5.0 0.00 0.00 0.00 33 1008.7
20260504024750 74 112 3.0 5.0 0.00 0.00 0.00 33 1008.8
20260504024246 74 91 3.0 6.0 0.00 0.00 0.00 33 1008.8
20260504023744 73 91 2.0 6.0 0.00 0.00 0.00 35 1008.8
20260504023242 74 135 2.0 5.0 0.00 0.00 0.00 35 1009.0
20260504023011 74 41 2.0 5.0 0.00 0.00 0.00 33 1008.8
20260504022242 74 87 3.0 7.0 0.00 0.00 0.00 35 1008.9
20260504021742 74 41 3.0 7.0 0.00 0.00 0.00 34 1009.0
20260504021242 74 118 4.0 12.0 0.00 0.00 0.00 34 1009.0
20260504020742 75 49 4.0 12.0 0.00 0.00 0.00 35 1009.2
20260504020242 74 91 4.0 11.0 0.00 0.00 0.00 34 1009.2
20260504015742 74 51 3.0 11.0 0.00 0.00 0.00 39 1009.3
20260504015240 75 46 3.0 7.0 0.00 0.00 0.00 34 1009.4
20260504014741 74 80 3.0 7.0 0.00 0.00 0.00 33 1009.3
20260504014510 74 126 4.0 9.0 0.00 0.00 0.00 34 1009.3
20260504013740 74 93 4.0 9.0 0.00 0.00 0.00 37 1009.3
20260504013242 74 92 3.0 7.0 0.00 0.00 0.00 36 1009.4
20260504012739 75 61 3.0 8.0 0.00 0.00 0.00 36 1009.4
20260504012232 76 65 3.0 8.0 0.00 0.00 0.00 35 1009.4
20260504011732 76 84 3.0 8.0 0.00 0.00 0.00 34 1009.5
20260504011455 75 91 4.0 8.0 0.00 0.00 0.00 35 1009.5
20260504010730 75 71 4.0 9.0 0.00 0.00 0.00 37 1009.7
20260504010230 75 111 3.0 9.0 0.00 0.00 0.00 35 1009.7
20260504005730 76 43 3.0 7.0 0.00 0.00 0.00 36 1009.7
20260504005234 76 100 3.0 7.0 0.00 0.00 0.00 36 1009.7
20260504004733 77 87 2.0 7.0 0.00 0.00 0.00 34 1009.9
20260504004231 75 81 2.0 7.0 0.00 0.00 0.00 36 1009.8
20260504003955 75 106 2.0 5.0 0.00 0.00 0.00 37 1009.9
20260504003454 76 43 2.0 6.0 0.00 0.00 0.00 36 1010.0
20260504002732 75 69 3.0 8.0 0.00 0.00 0.00 39 1010.0
20260504002233 76 104 4.0 8.0 0.00 0.00 0.00 35 1010.0
20260504001731 78 11 3.0 7.0 0.00 0.00 0.00 37 1010.1
20260504001231 77 66 2.0 7.0 0.00 0.00 0.00 34 1010.2
20260504000731 78 58 2.0 6.0 0.00 0.00 0.00 34 1010.2
20260503235951 77 66 2.0 8.0 0.00 0.00 0.00 37 1010.3
20260503235230 75 45 2.0 7.0 0.00 0.00 0.00 37 1010.4
20260503234729 75 59 3.0 7.0 0.00 0.00 0.00 40 1010.4
20260503233729 78 308 2.0 6.0 0.00 0.00 0.00 35 1010.7
20260503233230 79 65 2.0 4.0 0.00 0.00 0.00 33 1010.7
20260503232729 78 141 2.0 7.0 0.00 0.00 0.00 35 1010.8
20260503232231 76 101 2.0 7.0 0.00 0.00 0.00 38 1010.9
20260503231731 75 89 2.0 6.0 0.00 0.00 0.00 35 1011.0
20260503231505 75 328 2.0 5.0 0.00 0.00 0.00 42 1011.0
20260503230730 74 309 2.0 4.0 0.00 0.00 0.00 41 1011.2
20260503230231 74 53 2.0 5.0 0.00 0.00 0.00 40 1011.1
20260503225955 76 358 2.0 6.0 0.00 0.00 0.00 42 1011.2
20260503225230 74 105 3.0 7.0 0.00 0.00 0.00 40 1011.3
20260503224730 74 60 2.0 7.0 0.00 0.00 0.00 42 1011.4
20260503224229 71 60 2.0 6.0 0.00 0.00 0.00 46 1011.5
20260503223729 72 312 3.0 9.0 0.00 0.00 0.00 47 1011.5
20260503223229 73 54 2.0 9.0 0.00 0.00 0.00 44 1011.6
20260503222730 73 62 2.0 6.0 0.00 0.00 0.00 40 1011.6
20260503222230 73 295 2.0 5.0 0.00 0.00 0.00 41 1011.6
20260503221729 72 238 2.0 5.0 0.00 0.00 0.00 44 1011.7
20260503221233 75 61 3.0 7.0 0.00 0.00 0.00 41 1011.8
20260503220728 75 356 3.0 7.0 0.00 0.00 0.00 44 1011.7
20260503220229 73 43 2.0 7.0 0.00 0.00 0.00 42 1011.8
20260503215729 74 58 2.0 7.0 0.00 0.00 0.00 44 1012.0
20260503215230 73 79 3.0 6.0 0.00 0.00 0.00 46 1012.0
20260503214730 74 8 3.0 6.0 0.00 0.00 0.00 44 1011.9
20260503214231 74 110 2.0 6.0 0.00 0.00 0.00 43 1012.0
20260503213731 73 43 2.0 6.0 0.00 0.00 0.00 46 1012.1
20260503213233 73 59 2.0 6.0 0.00 0.00 0.00 46 1012.1
20260503212731 72 61 2.0 6.0 0.00 0.00 0.00 46 1012.1
20260503212230 71 41 2.0 6.0 0.00 0.00 0.00 46 1012.1
20260503211730 71 105 2.0 4.0 0.00 0.00 0.00 48 1012.2
20260503210733 69 56 2.0 6.0 0.00 0.00 0.00 48 1012.3
20260503210229 68 83 2.0 6.0 0.00 0.00 0.00 50 1012.4
20260503205729 68 328 2.0 5.0 0.00 0.00 0.00 52 1012.5
20260503205229 70 319 2.0 5.0 0.00 0.00 0.00 53 1012.9
20260503205003 71 337 2.0 5.0 0.00 0.00 0.00 48 1012.8
20260503204229 70 355 2.0 5.0 0.00 0.00 0.00 46 1012.8
20260503203732 70 38 2.0 4.0 0.00 0.00 0.00 51 1012.9
20260503202959 70 330 2.0 4.0 0.00 0.00 0.00 51 1013.1
20260503202230 69 41 2.0 5.0 0.00 0.00 0.00 48 1013.1
20260503201729 69 95 2.0 5.0 0.00 0.00 0.00 49 1013.2
20260503201229 68 42 2.0 4.0 0.00 0.00 0.00 52 1013.3
20260503200729 67 301 3.0 5.0 0.00 0.00 0.00 57 1013.4
20260503200501 67 32 2.0 5.0 0.00 0.00 0.00 59 1013.5
20260503195729 67 309 2.0 6.0 0.00 0.00 0.00 58 1013.5
20260503195229 69 87 2.0 6.0 0.00 0.00 0.00 58 1013.7
20260503194734 67 353 2.0 5.0 0.00 0.00 0.00 60 1013.6
20260503194233 66 309 2.0 7.0 0.00 0.00 0.00 60 1013.6
20260503193727 66 52 3.0 7.0 0.00 0.00 0.00 61 1013.6
20260503193222 67 55 2.0 7.0 0.00 0.00 0.00 59 1013.5
20260503192721 68 266 2.0 5.0 0.00 0.00 0.00 57 1013.6
20260503192221 68 60 2.0 6.0 0.00 0.00 0.00 57 1013.6
20260503191721 67 41 3.0 8.0 0.00 0.00 0.00 56 1013.7
20260503191219 67 295 3.0 8.0 0.00 0.00 0.00 58 1013.7
20260503190717 68 32 3.0 7.0 0.00 0.00 0.00 57 1013.6
20260503190215 67 74 3.0 7.0 0.00 0.00 0.00 58 1013.6
20260503185715 67 0 3.0 7.0 0.00 0.00 0.00 59 1013.6
20260503185214 67 11 2.0 7.0 0.00 0.00 0.00 58 1013.6
20260503184715 67 22 2.0 7.0 0.00 0.00 0.00 59 1013.8
20260503184215 66 51 2.0 7.0 0.00 0.00 0.00 59 1013.8
20260503183715 66 122 2.0 6.0 0.00 0.00 0.00 60 1013.8
20260503183215 65 98 2.0 6.0 0.00 0.00 0.00 59 1013.9
20260503182716 66 11 2.0 5.0 0.00 0.00 0.00 59 1014.0
20260503182214 65 45 2.0 7.0 0.00 0.00 0.00 60 1014.0
20260503181716 64 12 3.0 8.0 0.00 0.00 0.00 61 1014.0
20260503181215 65 67 3.0 8.0 0.00 0.00 0.00 62 1014.0
20260503180708 65 104 3.0 10.0 0.00 0.00 0.00 64 1014.0
20260503175709 64 62 2.0 7.0 0.00 0.00 0.00 64 1014.1
20260503175209 63 253 2.0 12.0 0.00 0.00 0.00 65 1014.2
20260503174707 63 115 2.0 12.0 0.00 0.00 0.00 66 1014.2
20260503174207 63 94 2.0 8.0 0.00 0.00 0.00 66 1014.1
20260503173715 62 109 3.0 8.0 0.00 0.00 0.00 65 1014.1
20260503173216 62 130 3.0 7.0 0.00 0.00 0.00 66 1014.2
20260503172715 62 20 2.0 7.0 0.00 0.00 0.00 66 1014.3
20260503172213 62 126 2.0 7.0 0.00 0.00 0.00 67 1014.3
20260503171707 61 145 3.0 7.0 0.00 0.00 0.00 67 1014.3
20260503171207 62 113 3.0 7.0 0.00 0.00 0.00 68 1014.4
20260503170706 61 118 2.0 7.0 0.00 0.00 0.00 67 1014.3
20260503170206 61 91 2.0 8.0 0.00 0.00 0.00 68 1014.3
20260503160201 60 84 2.0 5.0 0.00 0.00 0.00 74 1014.6
20260503150655 57 119 4.0 7.0 0.00 0.00 0.00 78 1014.7
20260503150409 57 107 3.0 7.0 0.00 0.00 0.00 78 1014.7
20260503140128 58 191 4.0 10.0 0.00 0.00 0.00 77 1014.6
20260503131353 58 120 2.0 8.0 0.00 0.00 0.00 75 1014.4
20260503130623 58 330 2.0 8.0 0.00 0.00 0.00 75 1014.4
20260503130347 58 125 2.0 8.0 0.00 0.00 0.00 75 1014.3
20260503120122 59 134 3.0 8.0 0.00 0.00 0.00 73 1014.5
20260503110604 60 115 4.0 11.0 0.00 0.00 0.00 71 1014.5
20260503110104 60 157 4.0 9.0 0.00 0.00 0.00 71 1014.6
20260503100103 60 107 2.0 9.0 0.00 0.00 0.00 69 1014.3